Change the Weather History Date:

Wednesday, June 27, 2012

  Actual Average Record
Temperature  
Mean Temperature 63 °F -  
Max Temperature 84 °F 76 °F 96 °F (1991)
Min Temperature 44 °F 52 °F 36 °F (1962)
Degree Days  
Heating Degree Days 2    
Growing Degree Days 13 (Base 50)    
Moisture  
Dew Point 52 °F    
Average Humidity 65    
Maximum Humidity 96    
Minimum Humidity 37    
Precipitation  
Precipitation 0.00 in - - ()
Sea Level Pressure  
Sea Level Pressure 29.88 in    
Wind  
Wind Speed 2 mph (WSW)    
Max Wind Speed 13 mph    
Max Gust Speed -    
Visibility 10 miles    
Events      
Averages and records for this station are not official NWS values.
T = Trace of Precipitation, MM = Missing Value Source: NWS Daily Summary

Daily Weather History Graph

Daily Weather History Graph

Search for Another Location

Airport or City:

Trip Planner

Search our weather history database for the weather conditions in past years. The results will help you decide how hot, cold, wet, or windy it might be!

Date:

Astronomy

Jun. 27, 2012 Rise Set
Actual Time 5:52 AM EDT 9:32 PM EDT
Civil Twilight 5:14 AM EDT 10:10 PM EDT
Nautical Twilight 4:23 AM EDT 11:00 PM EDT
Astronomical Twilight 3:14 AM EDT 12:09 AM EDT
Moon 2:43 PM EDT (6/27) 1:06 AM EDT (6/27)
Length of Visible Light 16h 55m
Length of Day
15h 40m
First Quarter, 56% of the Moon is Illuminated
Jun 27
First Quarter
Jul 3
Full
Jul 10
Last Quarter
Jul 19
New
Jul 26
First Quarter

Hourly Weather History & Observations

Time (EDT) Temp. Heat Index Dew Point Humidity Pressure Visibility Wind Dir Wind Speed Gust Speed Precip Events Conditions
12:54 AM 50.0 °F - 46.9 °F 89% 29.96 in 10.0 mi Calm Calm - N/A   Clear
1:54 AM 48.0 °F - 46.0 °F 93% 29.94 in 10.0 mi Calm Calm - N/A   Clear
2:54 AM 46.0 °F - 44.1 °F 93% 29.93 in 10.0 mi Calm Calm - N/A   Clear
3:54 AM 44.1 °F - 43.0 °F 96% 29.92 in 10.0 mi Calm Calm - N/A   Clear
4:54 AM 44.1 °F - 43.0 °F 96% 29.91 in 10.0 mi Calm Calm - N/A   Clear
5:54 AM 44.1 °F - 43.0 °F 96% 29.92 in 10.0 mi Calm Calm - N/A   Clear
6:54 AM 46.9 °F - 45.0 °F 93% 29.94 in 10.0 mi Calm Calm - N/A   Clear
7:54 AM 55.0 °F - 52.0 °F 89% 29.96 in 10.0 mi Calm Calm - N/A   Clear
8:54 AM 64.9 °F - 51.1 °F 61% 29.96 in 10.0 mi Calm Calm - N/A   Clear
9:54 AM 71.1 °F - 52.0 °F 51% 29.95 in 10.0 mi West 3.5 mph - N/A   Clear
10:54 AM 75.0 °F - 52.0 °F 44% 29.93 in 10.0 mi Variable 6.9 mph - N/A   Clear
11:54 AM 78.1 °F - 53.1 °F 42% 29.91 in 10.0 mi SW 8.1 mph - N/A   Clear
12:54 PM 79.0 °F - 52.0 °F 39% 29.90 in 10.0 mi WSW 8.1 mph - N/A   Clear
1:54 PM 82.0 °F 81.2 °F 53.1 °F 37% 29.89 in 10.0 mi West 6.9 mph - N/A   Clear
2:54 PM 82.0 °F 81.3 °F 54.0 °F 38% 29.86 in 10.0 mi SSW 12.7 mph - N/A   Clear
3:54 PM 81.0 °F 80.4 °F 53.1 °F 38% 29.85 in 10.0 mi SW 8.1 mph - N/A   Clear
4:54 PM 81.0 °F 80.5 °F 54.0 °F 39% 29.79 in 10.0 mi SSW 4.6 mph - N/A   Clear
5:54 PM 82.9 °F 81.9 °F 54.0 °F 37% 29.78 in 10.0 mi Calm Calm - N/A   Clear
6:54 PM 82.9 °F 82.1 °F 55.9 °F 39% 29.78 in 10.0 mi Calm Calm - N/A   Clear
7:54 PM 77.0 °F - 59.0 °F 54% 29.78 in 10.0 mi East 6.9 mph - N/A   Mostly Cloudy
8:54 PM 73.0 °F - 59.0 °F 61% 29.79 in 10.0 mi North 4.6 mph - N/A   Clear
9:54 PM 70.0 °F - 60.1 °F 71% 29.81 in 10.0 mi WNW 3.5 mph - N/A   Overcast
10:54 PM 64.9 °F - 59.0 °F 81% 29.80 in 10.0 mi Calm Calm - N/A   Clear
11:54 PM 61.0 °F - 59.0 °F 93% 29.78 in 10.0 mi Calm Calm - N/A   Clear